map of KOE home
Great Circle Mapper logo
KOE - Airport
Location
City:  Kupang, Indonesia
Name:Eltari
ICAO / IATA:WATT / KOE

Details
Type:Airport (Aerodrome, Airfield)
Use:Public/Civil, Military, International (customs port of entry)
Latitude:1010'18"S (-10.171582)
Longitude:12340'16"E (123.671136)
Datum:WGS 1984
Elevation:335 ft (102 m)
Variation:1.78E (WMM2015 magnetic declination)
-0.10 annual change
Runways:2
Longest:8202 × 148 ft (2500 × 45 m), paved

Time
Time Zone:UTC+8
Local Time:

Weather
METAR:WATT 311500Z 20002KT 7000 FEW015CB BKN016 25/25 Q1012 NOSIG RMK CB TO W NW AND N
TAF:WATT 311100Z 3112/0112 00000KT 7000 BKN015
TEMPO 3117/3121 5000 -TSRA FEW014CB SCT015
BECMG 3121/3122 7000 SCT016
BECMG 3123/0101 31006KT 9999 SCT018 NSW

Related Locations
Nearby:
Farthest:OGL: 12173 mi / 19590 km
Ogle, GY

Find:

   beyond  
but within

Other Information
Maps:
NOTAMs:
Links:
Sources:

  
flag of Indonesia   

Sectional Chart

Flight Planning
at skyvector.com

Satellite Image

Google Maps Satellite View

 

Copyright © 2004-2015 Karl L. Swartz. All rights reserved.
The Great Circle Mapper name and logo are trademarks of the Great Circle Mapper.
All other trademarks mentioned herein belong to their respective owners.
Please see credits for attibutions and further copyright information.

  Follow gcmap on Facebook Follow gcmap on Twitter

hCard Microformat

Geo Microformat